This demonstration page uses our WeatherBlox Daily Observations layout. Learn more.

Left ArrowRight Arrow

39.12711, -84.51439

Hourly Observations for August 22, 2016

Temp ( °F °C ) Dew Point ( °F °C ) Humidity (%) Winds ( mph kmh ) Pressure ( in mb ) Visibility ( mi km ) Precip ( " mm )
12:53 am 00:53 Clear 61 16.1 61 16.1 100 100 N N/A 30.09 1019 10 16 N/A
1:53 am 01:53 Clear 61 16.1 61 16.1 100 100 N N/A 30.09 1019 10 16 N/A
2:13 am 02:13 Clear with Mist and Fog 59 15 59 15 100 100 N N/A 30.12 1020 2 3 N/A
2:22 am 02:22 Clear with Mist and Fog 60 15.6 60 15.6 100 100 N N/A 30.09 1019 3 5 N/A
2:53 am 02:53 Clear 59 15 59 15 100 100 N N/A 30.10 1019 10 16 N/A
3:47 am 03:47 Clear with Mist and Fog 57 14 57 14 100 100 N N/A 30.12 1020 2 2 N/A
3:53 am 03:53 Clear with Mist and Fog 58 14.4 58 14.4 100 100 N N/A 30.11 1020 1 2 N/A
4:01 am 04:01 Clear with Fog 58 14.4 58 14.4 100 100 N N/A 30.12 1020 1 1 N/A
4:09 am 04:09 Clear with Mist and Fog 58 14.4 58 14.4 100 100 N N/A 30.12 1020 2 3 N/A
4:16 am 04:16 Clear with Mist and Fog 59 15 59 15 100 100 N N/A 30.12 1020 6 10 N/A
4:25 am 04:25 Clear with Mist and Fog 58 14.4 58 14.4 100 100 N N/A 30.12 1020 2 3 N/A
4:37 am 04:37 Clear with Mist and Fog 58 14.4 58 14.4 100 100 N N/A 30.12 1020 4 6 N/A
4:53 am 04:53 Clear 58 14.4 58 14.4 100 100 N N/A 30.12 1020 10 16 N/A
5:53 am 05:53 Clear 57 13.9 57 13.9 100 100 N N/A 30.13 1020 9 14 N/A
5:56 am 05:56 Clear with Mist and Fog 57 14 57 14 100 100 N N/A 30.15 1021 2 3 N/A
6:11 am 06:11 Mostly Clear with Mist and Fog 57 13.9 57 13.9 100 100 N N/A 30.15 1021 3 5 N/A
6:23 am 06:23 Mostly Cloudy with Mist and Fog 57 13.9 57 13.9 100 100 N N/A 30.15 1021 3 4 N/A
6:31 am 06:31 Mostly Cloudy with Mist and Fog 57 13.9 57 13.9 100 100 N N/A 30.15 1021 1 2 N/A
6:36 am 06:36 Cloudy with Mist and Fog 57 14 57 14 100 100 N N/A 30.15 1021 3 5 N/A
6:53 am 06:53 Partly Cloudy with Patchy Fog 57 13.9 57 13.9 100 100 N N/A 30.16 1021 10 16 N/A
7:07 am 07:07 Mostly Cloudy with Patchy Fog 58 14.4 58 14.4 100 100 N N/A 30.18 1022 4 6 N/A
7:53 am 07:53 Mostly Cloudy with Fog 60 15.6 60 15.6 100 100 N N/A 30.17 1022 5 8 N/A
8:49 am 08:49 Partly Cloudy 63 17 63 17 100 100 N N/A 30.18 1022 7 11 N/A
8:53 am 08:53 Partly Cloudy with Patchy Fog 63 17.2 63 17.2 100 100 N N/A 30.20 1023 7 11 N/A
9:53 am 09:53 Sunny 70 21.1 62 16.7 76 76 NNE 3 6 30.20 1023 10 16 N/A
10:53 am 10:53 Sunny 72 22.2 61 16.1 68 68 NE 3 6 30.22 1023 10 16 N/A
11:53 am 11:53 Partly Cloudy 76 24.4 57 13.9 52 52 VRB 5 7 30.22 1023 10 16 N/A
12:53 pm 12:53 Mostly Cloudy 76 24.4 56 13.3 50 50 SSE 3 6 30.22 1023 10 16 N/A
1:53 pm 13:53 Mostly Cloudy 77 25 56 13.3 48 48 SSW 7 11 30.21 1023 10 16 N/A
2:53 pm 14:53 Partly Cloudy 78 25.6 57 13.9 48 48 SSE 7 11 30.20 1023 10 16 N/A
3:53 pm 15:53 Partly Cloudy 78 25.6 57 13.9 48 48 WSW 6 9 30.19 1022 10 16 N/A
4:53 pm 16:53 Partly Cloudy 79 26.1 56 13.3 45 45 SW 7 11 30.18 1022 10 16 N/A
5:53 pm 17:53 Mostly Sunny 78 25.6 57 13.9 48 48 SW 5 7 30.17 1022 10 16 N/A
6:53 pm 18:53 Mostly Sunny 73 22.8 61 16.1 66 66 SSE 3 6 30.17 1022 10 16 N/A
7:53 pm 19:53 Mostly Sunny 70 21.1 64 17.8 82 82 N N/A 30.18 1022 10 16 N/A
8:53 pm 20:53 Clear 66 18.9 62 16.7 87 87 N N/A 30.19 1023 10 16 N/A
9:53 pm 21:53 Clear 63 17.2 61 16.1 93 93 N N/A 30.22 1023 10 16 N/A
10:53 pm 22:53 Clear 62 16.7 61 16.1 96 96 N N/A 30.22 1024 10 16 N/A
11:53 pm 23:53 Clear 62 16.7 61 16.1 96 96 N N/A 30.23 1024 10 16 N/A

Powered by AerisWeather